Regional Weather Roundup
Issued by NWS

Home | Current Version | Previous Version | Text Only | Print | Product List | Glossary On
Versions: 1 2 3 4 5 6 7 8 9 10 11 12 13 14 15 16 17 18 19 20 21 22 23 24 25 26 27 28 29 30 31 32 33 34 35 36 37 38 39 40 41 42 43 44 45 46 47 48 49 50
000
ASUS45 KABQ 240810
RWRNM
NEW MEXICO REGIONAL WEATHER ROUNDUP
NATIONAL WEATHER SERVICE ALBUQUERQUE NM
200 AM MDT WED MAY 24 2017

NOTE: "FAIR" MEANS FEW OR NO CLOUDS BELOW 12,000 FEET AGL WITH NO
       SIGNIFICANT WEATHER OR OBSTRUCTIONS TO VISION.

      THIS PRODUCT IS RELEASED AS TWO VERSIONS.  ONE VERSION NEAR
      THE TOP OF THE HOUR CONTAINING PRELIMINARY DATA FROM ALBUQUERQUE
      AND OTHER STATIONS.  A FINAL VERSION WITH ADDITIONAL DATA IS
      ISSUED ABOUT 10 MINUTES AFTER THE HOUR.

NMZ501-503-504-510>518-240900-
NORTHWEST PLATEAU/NORTHCENTRAL MOUNTAINS

CITY           SKY/WX    TMP DP  RH WIND       PRES   REMARKS
FARMINGTON     FAIR      53  27  36 W3        30.06F
LOS ALAMOS     FAIR      46  32  56 S7        30.17S
SANTA FE       FAIR      46  33  60 SE8       30.12F
TAOS           FAIR      39  21  48 E3        30.16S
ANGEL FIRE     FAIR      30  27  88 CALM      30.20F

$$
NMZ402-403-502-505>509-240900-
WESTCENTRAL MOUNTAINS/SOUTHWEST MOUNTAINS

CITY           SKY/WX    TMP DP  RH WIND       PRES   REMARKS
GALLUP         FAIR      45  26  47 SW5       30.16F
GRANTS         FAIR      44  21  40 W3        30.16S
SILVER CITY    FAIR      54  24  31 E3        30.08S

$$
NMZ407-409-411-412-240900-
SOUTHERN DESERTS

CITY           SKY/WX    TMP DP  RH WIND       PRES   REMARKS
DEMING         FAIR      61  38  42 NE8       30.03R
LAS CRUCES     FAIR      61  38  42 SE10      30.05S
HOLLOMAN AFB   FAIR      60  37  41 S7        30.06S
ALAMOGORDO     FAIR      57  34  41 NW6       30.04S
T OR C         FAIR      64  20  18 NW5       30.03F

$$
NMZ519>523-240900-
CENTRAL VALLEYS/CENTRAL HIGHLANDS

CITY           SKY/WX    TMP DP  RH WIND       PRES   REMARKS
ALBUQUERQUE    FAIR      58  29  33 N6        30.07F
MORIARTY ARPT  FAIR      38  30  74 NW3       30.14F
CLINES CORNERS FAIR      41  30  65 E6        30.15F
BELEN          FAIR      56  22  26 N7        30.05F
SOCORRO        FAIR      54  22  29 CALM      30.04F

$$
NMZ524>526-539-540-240900-
SOUTHCENTRAL MOUNTAINS

CITY           SKY/WX    TMP DP  RH WIND       PRES   REMARKS
RUIDOSO        CLOUDY    45  30  57 CALM      30.17F

$$
NMZ527>531-240900-
NORTHEAST HIGHLANDS/NORTHEAST PLAINS

CITY           SKY/WX    TMP DP  RH WIND       PRES   REMARKS
LAS VEGAS      FAIR      39  31  72 SW12      30.14F WCI  32
RATON          FAIR      39  32  76 NE5       30.11F
CLAYTON        FAIR      42  35  76 W8        30.06F

$$
NMZ532>537-240900-
EASTCENTRAL PLAINS

CITY           SKY/WX    TMP DP  RH WIND       PRES   REMARKS
SANTA ROSA     FAIR      46  36  69 SW3       30.08F
TUCUMCARI      FAIR      49  43  80 W8        30.03F
CANNON AFB     FAIR      48  42  80 W6        30.07F
CLOVIS AIRPORT FAIR      45  36  70 W7        30.06F

$$
NMZ028-029-538-240900-
SOUTHEAST PLAINS

CITY           SKY/WX    TMP DP  RH WIND       PRES   REMARKS
ROSWELL        FAIR      47  32  56 SW6       30.05F
ARTESIA        FAIR      52  34  50 SW5       30.05F
CARLSBAD       FAIR      53  41  63 S6        30.04F
HOBBS          FAIR      46  32  57 CALM      30.07F


$$



USA.gov is the U.S. government's official web portal to all federal, state and local government web resources and services.